AFL1190 UUEE-UWKD

Flight info

Callsign AFL1190
Flight time 1h 11m
Altitude 37000
Route KOGOM3J KOGOM L94 EKPIR M864 INKEB L94 UNORO T788 KOROM KOROM1R
Aircraft B738/M-SDE2E3FGHIRWXY/LB1

Departure

Time 2026-05-05 08:13
Airport Sheremetyevo International Airport (UUEE)

Arrival

Time 2026-05-05 09:24
Airport Kazan International Airport (UWKD)
Time Latitude Longitude Altitude Speed Heading
2026-05-05 07:42 55.97885 37.41648 638 ft 0 kts 77°
2026-05-05 08:03 55.97883 37.41632 638 ft 2 kts 77°
2026-05-05 08:03 55.97879 37.41604 638 ft 2 kts 77°
2026-05-05 08:03 55.97875 37.41576 646 ft 2 kts 77°
2026-05-05 08:04 55.97871 37.41548 642 ft 2 kts 76°
2026-05-05 08:04 55.97867 37.41520 639 ft 2 kts 88°
2026-05-05 08:04 55.97873 37.41494 638 ft 2 kts 145°
2026-05-05 08:04 55.97888 37.41482 643 ft 2 kts 164°
2026-05-05 08:05 55.97891 37.41480 642 ft 0 kts 166°
2026-05-05 08:07 55.97889 37.41481 643 ft 2 kts 166°
2026-05-05 08:07 55.97831 37.41509 641 ft 12 kts 165°
2026-05-05 08:07 55.97753 37.41546 641 ft 11 kts 165°
2026-05-05 08:07 55.97677 37.41583 638 ft 11 kts 165°
2026-05-05 08:08 55.97611 37.41661 640 ft 15 kts 99°
2026-05-05 08:08 55.97635 37.41852 645 ft 16 kts 75°
2026-05-05 08:08 55.97662 37.42036 641 ft 15 kts 75°
2026-05-05 08:08 55.97689 37.42213 638 ft 14 kts 75°
2026-05-05 08:09 55.97706 37.42326 646 ft 14 kts 75°
2026-05-05 08:09 55.97730 37.42490 640 ft 13 kts 75°
2026-05-05 08:09 55.97753 37.42643 641 ft 11 kts 75°
2026-05-05 08:09 55.97753 37.42771 641 ft 11 kts 131°
2026-05-05 08:10 55.97686 37.42819 638 ft 10 kts 166°
2026-05-05 08:10 55.97620 37.42840 638 ft 9 kts 194°
2026-05-05 08:10 55.97593 37.42763 638 ft 0 kts 255°
2026-05-05 08:12 55.97563 37.42556 639 ft 50 kts 255°
2026-05-05 08:13 55.97406 37.41509 637 ft 124 kts 255°
2026-05-05 08:13 55.97140 37.39676 800 ft 169 kts 256°
2026-05-05 08:13 55.96792 37.37731 1786 ft 159 kts 245°
2026-05-05 08:13 55.96196 37.35992 2510 ft 177 kts 237°
2026-05-05 08:14 55.95413 37.34065 2747 ft 203 kts 235°
2026-05-05 08:14 55.94552 37.31945 3038 ft 216 kts 236°
2026-05-05 08:14 55.93673 37.29730 3540 ft 220 kts 237°
2026-05-05 08:14 55.92794 37.27488 4218 ft 220 kts 238°
2026-05-05 08:15 55.91931 37.25271 5052 ft 216 kts 239°
2026-05-05 08:15 55.91074 37.23062 5760 ft 218 kts 239°
2026-05-05 08:15 55.90016 37.21097 6491 ft 227 kts 216°
2026-05-05 08:15 55.88467 37.20259 6895 ft 247 kts 187°
2026-05-05 08:16 55.86707 37.21011 6984 ft 278 kts 155°
2026-05-05 08:16 55.85167 37.23183 6993 ft 290 kts 134°
2026-05-05 08:16 55.84280 37.26413 7010 ft 295 kts 102°
2026-05-05 08:16 55.84354 37.30070 7036 ft 302 kts 71°
2026-05-05 08:17 55.85343 37.33384 7553 ft 305 kts 49°
2026-05-05 08:17 55.86693 37.36323 8315 ft 307 kts 46°
2026-05-05 08:17 55.88094 37.39237 8830 ft 311 kts 46°
2026-05-05 08:17 55.89491 37.42184 8995 ft 313 kts 46°
2026-05-05 08:18 55.90881 37.45173 8998 ft 313 kts 47°
2026-05-05 08:18 55.92258 37.48163 8992 ft 311 kts 47°
2026-05-05 08:18 55.93440 37.51395 8973 ft 315 kts 69°
2026-05-05 08:18 55.93755 37.55248 9122 ft 317 kts 96°
2026-05-05 08:19 55.93379 37.59152 9763 ft 321 kts 104°
2026-05-05 08:19 55.92920 37.63073 10526 ft 323 kts 104°
2026-05-05 08:19 55.92467 37.67008 11291 ft 325 kts 103°
2026-05-05 08:19 55.92025 37.70930 12247 ft 322 kts 103°
2026-05-05 08:20 55.91501 37.74832 13006 ft 326 kts 114°
2026-05-05 08:20 55.90473 37.78448 13753 ft 329 kts 122°
2026-05-05 08:20 55.89325 37.81994 14471 ft 332 kts 123°
2026-05-05 08:20 55.88162 37.85570 14854 ft 333 kts 123°
2026-05-05 08:21 55.87006 37.89165 14993 ft 338 kts 122°
2026-05-05 08:21 55.85845 37.92820 14992 ft 338 kts 122°
2026-05-05 08:21 55.84699 37.96457 14994 ft 336 kts 122°
2026-05-05 08:21 55.83563 38.00077 14999 ft 334 kts 122°
2026-05-05 08:22 55.82428 38.03692 15001 ft 334 kts 122°
2026-05-05 08:22 55.81316 38.07225 15019 ft 333 kts 122°
2026-05-05 08:22 55.80191 38.10848 15013 ft 334 kts 118°
2026-05-05 08:22 55.79599 38.14837 15003 ft 340 kts 94°
2026-05-05 08:23 55.79624 38.19150 15217 ft 357 kts 87°
2026-05-05 08:23 55.79763 38.23638 15729 ft 367 kts 86°
2026-05-05 08:23 55.79906 38.28188 15843 ft 368 kts 87°
2026-05-05 08:23 55.80023 38.32739 15854 ft 370 kts 88°
2026-05-05 08:24 55.80124 38.37322 15841 ft 370 kts 88°
2026-05-05 08:24 55.80309 38.41891 15836 ft 370 kts 78°
2026-05-05 08:24 55.81036 38.46316 16190 ft 376 kts 70°
2026-05-05 08:24 55.81886 38.50721 17012 ft 377 kts 70°
2026-05-05 08:25 55.82727 38.55138 17848 ft 378 kts 70°
2026-05-05 08:25 55.83556 38.59614 18485 ft 383 kts 71°
2026-05-05 08:25 55.84375 38.64156 18820 ft 387 kts 71°
2026-05-05 08:25 55.85190 38.68729 18827 ft 387 kts 71°
2026-05-05 08:26 55.86046 38.73269 18846 ft 388 kts 66°
2026-05-05 08:26 55.87167 38.77731 18995 ft 402 kts 62°
2026-05-05 08:26 55.88422 38.82239 19448 ft 410 kts 62°
2026-05-05 08:26 55.89683 38.86736 20079 ft 412 kts 62°
2026-05-05 08:27 55.90947 38.91330 20770 ft 414 kts 62°
2026-05-05 08:27 55.92200 38.95981 21339 ft 419 kts 63°
2026-05-05 08:27 55.93467 39.00756 21896 ft 423 kts 63°
2026-05-05 08:27 55.94709 39.05468 22482 ft 426 kts 63°
2026-05-05 08:28 55.95962 39.10278 23076 ft 429 kts 65°
2026-05-05 08:28 55.96736 39.15440 23553 ft 435 kts 83°
2026-05-05 08:28 55.97000 39.20835 24075 ft 436 kts 85°
2026-05-05 08:28 55.97234 39.26232 24689 ft 435 kts 85°
2026-05-05 08:29 55.97479 39.31636 25131 ft 439 kts 85°
2026-05-05 08:29 55.97747 39.37093 25505 ft 444 kts 85°
2026-05-05 08:29 55.98032 39.42602 25916 ft 447 kts 85°
2026-05-05 08:30 55.98623 39.53729 26786 ft 453 kts 85°
2026-05-05 08:30 55.98918 39.59350 27190 ft 456 kts 85°
2026-05-05 08:30 55.99243 39.65011 27535 ft 461 kts 81°
2026-05-05 08:30 56.00207 39.70486 27825 ft 464 kts 62°
2026-05-05 08:31 56.01666 39.75627 28282 ft 466 kts 66°
2026-05-05 08:31 56.02694 39.81129 28668 ft 469 kts 77°
2026-05-05 08:31 56.03164 39.86906 29006 ft 472 kts 88°
2026-05-05 08:31 56.03253 39.92766 29375 ft 474 kts 90°
2026-05-05 08:32 56.03287 39.98738 29721 ft 476 kts 91°
2026-05-05 08:32 56.03315 40.04612 30007 ft 479 kts 91°
2026-05-05 08:32 56.03355 40.10586 30375 ft 479 kts 90°
2026-05-05 08:32 56.03411 40.16551 30786 ft 478 kts 90°
2026-05-05 08:33 56.03476 40.22481 31206 ft 477 kts 90°
2026-05-05 08:33 56.03546 40.28424 31573 ft 477 kts 90°
2026-05-05 08:33 56.03615 40.34352 31926 ft 478 kts 90°
2026-05-05 08:33 56.03681 40.40302 32292 ft 478 kts 90°
2026-05-05 08:34 56.03743 40.46182 32614 ft 479 kts 90°
2026-05-05 08:34 56.03803 40.52224 32994 ft 478 kts 90°
2026-05-05 08:34 56.03859 40.58161 33384 ft 477 kts 90°
2026-05-05 08:34 56.03912 40.64085 33744 ft 477 kts 90°
2026-05-05 08:35 56.03962 40.70008 34057 ft 477 kts 90°
2026-05-05 08:35 56.04008 40.75916 34415 ft 475 kts 90°
2026-05-05 08:35 56.04050 40.81794 34765 ft 472 kts 90°
2026-05-05 08:36 56.04120 40.93542 34820 ft 471 kts 90°
2026-05-05 08:36 56.04179 41.05205 34825 ft 469 kts 90°
2026-05-05 08:37 56.04228 41.16780 34823 ft 468 kts 90°
2026-05-05 08:37 56.04267 41.28421 34820 ft 468 kts 90°
2026-05-05 08:38 56.04296 41.40064 34824 ft 468 kts 90°
2026-05-05 08:38 56.04313 41.51716 34825 ft 469 kts 91°
2026-05-05 08:39 56.04319 41.63379 34815 ft 469 kts 90°
2026-05-05 08:39 56.04315 41.75057 34817 ft 469 kts 91°
2026-05-05 08:40 56.04299 41.86711 34819 ft 468 kts 91°
2026-05-05 08:40 56.04273 41.98281 34812 ft 468 kts 91°
2026-05-05 08:41 56.04235 42.09919 34827 ft 468 kts 91°
2026-05-05 08:41 56.04187 42.21564 34819 ft 468 kts 91°
2026-05-05 08:42 56.04127 42.33231 34799 ft 468 kts 91°
2026-05-05 08:42 56.04059 42.44862 34812 ft 467 kts 91°
2026-05-05 08:43 56.03975 42.56467 34812 ft 466 kts 91°
2026-05-05 08:43 56.03847 42.67967 34818 ft 465 kts 92°
2026-05-05 08:44 56.03700 42.79522 34817 ft 464 kts 92°
2026-05-05 08:44 56.03547 42.91056 34815 ft 463 kts 92°
2026-05-05 08:45 56.03387 43.02581 34823 ft 464 kts 92°
2026-05-05 08:45 56.03216 43.14109 34821 ft 464 kts 92°
2026-05-05 08:46 56.03036 43.25646 34824 ft 464 kts 92°
2026-05-05 08:46 56.03008 43.37192 34816 ft 465 kts 85°
2026-05-05 08:47 56.03783 43.48679 34817 ft 466 kts 82°
2026-05-05 08:47 56.04647 43.60087 34828 ft 466 kts 83°
2026-05-05 08:48 56.05456 43.71601 34838 ft 467 kts 83°
2026-05-05 08:48 56.06217 43.83130 34823 ft 468 kts 83°
2026-05-05 08:49 56.06960 43.94695 34823 ft 467 kts 83°
2026-05-05 08:49 56.07694 44.06255 34821 ft 467 kts 83°
2026-05-05 08:50 56.08420 44.17823 34814 ft 466 kts 84°
2026-05-05 08:50 56.09132 44.29354 34823 ft 465 kts 84°
2026-05-05 08:51 56.09828 44.40791 34818 ft 464 kts 84°
2026-05-05 08:51 56.10517 44.52293 34824 ft 464 kts 84°
2026-05-05 08:52 56.11083 44.61861 34816 ft 464 kts 84°
2026-05-05 08:52 56.11298 44.73390 34831 ft 463 kts 93°
2026-05-05 08:53 56.10964 44.84915 34810 ft 463 kts 93°
2026-05-05 08:53 56.10690 44.96415 34827 ft 462 kts 92°
2026-05-05 08:54 56.10448 45.07927 34824 ft 462 kts 92°
2026-05-05 08:54 56.10176 45.19374 34830 ft 462 kts 93°
2026-05-05 08:55 56.09892 45.30892 34838 ft 462 kts 93°
2026-05-05 08:55 56.09601 45.42387 34836 ft 462 kts 93°
2026-05-05 08:56 56.09300 45.53862 34835 ft 462 kts 93°
2026-05-05 08:56 56.08988 45.65353 34841 ft 461 kts 93°
2026-05-05 08:57 56.08668 45.76750 34834 ft 461 kts 93°
2026-05-05 08:57 56.08336 45.88204 34844 ft 460 kts 93°
2026-05-05 08:58 56.07994 45.99634 34839 ft 459 kts 93°
2026-05-05 08:58 56.07642 46.11045 34853 ft 459 kts 94°
2026-05-05 08:59 56.07283 46.22364 34833 ft 444 kts 94°
2026-05-05 08:59 56.07107 46.27804 34833 ft 430 kts 94°
2026-05-05 08:59 56.06933 46.33082 34749 ft 420 kts 94°
2026-05-05 08:59 56.06758 46.38360 33836 ft 431 kts 94°
2026-05-05 09:00 56.06576 46.43758 32995 ft 438 kts 94°
2026-05-05 09:00 56.06359 46.49251 32128 ft 445 kts 97°
2026-05-05 09:00 56.05759 46.54712 31283 ft 450 kts 108°
2026-05-05 09:00 56.04696 46.59995 30700 ft 449 kts 112°
2026-05-05 09:01 56.03562 46.65140 30479 ft 440 kts 113°
2026-05-05 09:01 56.02438 46.70193 30116 ft 435 kts 113°
2026-05-05 09:01 56.01333 46.75203 29684 ft 432 kts 113°
2026-05-05 09:01 56.00248 46.80177 29235 ft 428 kts 112°
2026-05-05 09:02 55.99182 46.85106 28817 ft 423 kts 112°
2026-05-05 09:02 55.98128 46.89992 28392 ft 419 kts 112°
2026-05-05 09:02 55.97087 46.94819 27956 ft 416 kts 112°
2026-05-05 09:02 55.96051 46.99614 27543 ft 412 kts 112°
2026-05-05 09:03 55.95023 47.04357 27133 ft 409 kts 112°
2026-05-05 09:03 55.94000 47.09069 26723 ft 406 kts 112°
2026-05-05 09:03 55.92981 47.13749 26320 ft 403 kts 112°
2026-05-05 09:03 55.91968 47.18388 25925 ft 401 kts 112°
2026-05-05 09:04 55.90954 47.23018 25450 ft 401 kts 112°
2026-05-05 09:04 55.89943 47.27632 25034 ft 399 kts 112°
2026-05-05 09:04 55.88934 47.32229 24626 ft 397 kts 112°
2026-05-05 09:04 55.87927 47.36807 24222 ft 396 kts 112°
2026-05-05 09:05 55.86937 47.41300 23811 ft 395 kts 112°
2026-05-05 09:05 55.85931 47.45852 23400 ft 394 kts 112°
2026-05-05 09:05 55.84931 47.50374 22919 ft 392 kts 112°
2026-05-05 09:05 55.83931 47.54882 22501 ft 389 kts 112°
2026-05-05 09:06 55.82938 47.59354 22094 ft 386 kts 112°
2026-05-05 09:06 55.81953 47.63776 21694 ft 384 kts 112°
2026-05-05 09:06 55.80972 47.68176 21308 ft 381 kts 112°
2026-05-05 09:06 55.80000 47.72527 20930 ft 378 kts 112°
2026-05-05 09:07 55.79029 47.76859 20552 ft 375 kts 112°
2026-05-05 09:07 55.78066 47.81147 20165 ft 373 kts 112°
2026-05-05 09:07 55.77104 47.85401 19793 ft 370 kts 112°
2026-05-05 09:07 55.76154 47.89579 19429 ft 368 kts 113°
2026-05-05 09:08 55.75198 47.93770 19052 ft 366 kts 112°
2026-05-05 09:08 55.74230 47.98007 18675 ft 364 kts 112°
2026-05-05 09:08 55.73294 48.02100 18301 ft 363 kts 112°
2026-05-05 09:08 55.72347 48.06233 17897 ft 361 kts 112°
2026-05-05 09:09 55.71401 48.10356 17485 ft 359 kts 112°
2026-05-05 09:09 55.70460 48.14452 17094 ft 357 kts 112°
2026-05-05 09:09 55.69528 48.18503 16712 ft 354 kts 112°
2026-05-05 09:09 55.68602 48.22519 16345 ft 351 kts 112°
2026-05-05 09:10 55.67679 48.26514 15983 ft 348 kts 112°
2026-05-05 09:10 55.66764 48.30465 15628 ft 346 kts 112°
2026-05-05 09:10 55.65851 48.34402 15259 ft 344 kts 112°
2026-05-05 09:10 55.64948 48.38298 14895 ft 341 kts 112°
2026-05-05 09:11 55.64045 48.42176 14540 ft 339 kts 112°
2026-05-05 09:11 55.63150 48.46014 14187 ft 337 kts 112°
2026-05-05 09:11 55.62236 48.49815 13836 ft 335 kts 116°
2026-05-05 09:11 55.61129 48.53435 13480 ft 333 kts 121°
2026-05-05 09:12 55.59940 48.56924 13097 ft 330 kts 122°
2026-05-05 09:12 55.58738 48.60390 12723 ft 328 kts 122°
2026-05-05 09:12 55.57555 48.63821 12370 ft 326 kts 122°
2026-05-05 09:12 55.56389 48.67238 12024 ft 324 kts 122°
2026-05-05 09:13 55.55234 48.70647 11670 ft 322 kts 121°
2026-05-05 09:13 55.54093 48.74032 11328 ft 320 kts 121°
2026-05-05 09:13 55.52957 48.77410 10974 ft 319 kts 121°
2026-05-05 09:13 55.51829 48.80768 10627 ft 318 kts 121°
2026-05-05 09:14 55.50703 48.84116 10288 ft 316 kts 121°
2026-05-05 09:14 55.49592 48.87415 10124 ft 309 kts 121°
2026-05-05 09:14 55.48511 48.90628 9980 ft 301 kts 122°
2026-05-05 09:14 55.47454 48.93765 9795 ft 295 kts 121°
2026-05-05 09:15 55.46406 48.96867 9490 ft 294 kts 122°
2026-05-05 09:15 55.45361 48.99955 9183 ft 292 kts 122°
2026-05-05 09:15 55.44325 49.03012 8900 ft 290 kts 122°
2026-05-05 09:15 55.43288 49.06066 8554 ft 290 kts 122°
2026-05-05 09:16 55.42251 49.09114 8210 ft 291 kts 122°
2026-05-05 09:16 55.41211 49.12168 7861 ft 291 kts 122°
2026-05-05 09:16 55.40168 49.15228 7514 ft 292 kts 123°
2026-05-05 09:16 55.39121 49.18301 7160 ft 293 kts 123°
2026-05-05 09:17 55.38073 49.21369 6857 ft 292 kts 123°
2026-05-05 09:17 55.37029 49.24420 6553 ft 291 kts 123°
2026-05-05 09:17 55.35987 49.27477 6208 ft 292 kts 121°
2026-05-05 09:17 55.35374 49.30860 5828 ft 295 kts 92°
2026-05-05 09:18 55.35732 49.34375 5484 ft 294 kts 64°
2026-05-05 09:18 55.36887 49.37214 5278 ft 285 kts 40°
2026-05-05 09:18 55.38409 49.39316 5213 ft 273 kts 33°
2026-05-05 09:18 55.39943 49.41253 5136 ft 263 kts 33°
2026-05-05 09:19 55.41386 49.43086 5080 ft 253 kts 33°
2026-05-05 09:19 55.42779 49.44835 4981 ft 240 kts 31°
2026-05-05 09:19 55.44175 49.46498 4537 ft 243 kts 31°
2026-05-05 09:19 55.45577 49.48163 4099 ft 242 kts 31°
2026-05-05 09:20 55.46968 49.49826 3651 ft 242 kts 31°
2026-05-05 09:20 55.48361 49.51497 3209 ft 242 kts 30°
2026-05-05 09:20 55.49899 49.52481 2783 ft 232 kts 353°
2026-05-05 09:20 55.51263 49.51541 2703 ft 198 kts 310°
2026-05-05 09:21 55.52108 49.49785 2682 ft 180 kts 304°
2026-05-05 09:21 55.52855 49.48025 2704 ft 179 kts 301°
2026-05-05 09:21 55.53566 49.46208 2538 ft 180 kts 300°
2026-05-05 09:21 55.54261 49.44400 2300 ft 173 kts 300°
2026-05-05 09:22 55.54913 49.42698 2124 ft 161 kts 299°
2026-05-05 09:22 55.55545 49.41121 1892 ft 153 kts 297°
2026-05-05 09:22 55.56091 49.39597 1691 ft 143 kts 296°
2026-05-05 09:22 55.56655 49.38151 1508 ft 143 kts 296°
2026-05-05 09:23 55.57225 49.36696 1322 ft 145 kts 297°
2026-05-05 09:23 55.57789 49.35220 1148 ft 148 kts 301°
2026-05-05 09:23 55.58374 49.33702 982 ft 150 kts 302°
2026-05-05 09:23 55.58951 49.32207 763 ft 145 kts 302°
2026-05-05 09:24 55.59527 49.30727 542 ft 146 kts 302°
2026-05-05 09:24 55.60087 49.29280 419 ft 134 kts 300°
2026-05-05 09:24 55.60551 49.28063 411 ft 93 kts 305°
2026-05-05 09:24 55.60773 49.27495 412 ft 40 kts 304°
2026-05-05 09:25 55.60925 49.27099 410 ft 35 kts 304°
2026-05-05 09:25 55.61026 49.26842 413 ft 19 kts 304°
2026-05-05 09:25 55.61089 49.26780 415 ft 10 kts 17°
2026-05-05 09:25 55.61150 49.26844 417 ft 11 kts 34°
2026-05-05 09:26 55.61209 49.26922 415 ft 8 kts 52°
2026-05-05 09:26 55.61198 49.27052 412 ft 14 kts 123°
2026-05-05 09:26 55.61129 49.27229 408 ft 20 kts 124°
2026-05-05 09:26 55.61052 49.27429 412 ft 19 kts 124°
2026-05-05 09:27 55.60978 49.27620 415 ft 19 kts 124°
2026-05-05 09:27 55.60906 49.27804 414 ft 18 kts 124°
2026-05-05 09:27 55.60837 49.27982 412 ft 17 kts 124°
2026-05-05 09:27 55.60767 49.28164 412 ft 20 kts 124°
2026-05-05 09:28 55.60689 49.28366 415 ft 20 kts 124°
2026-05-05 09:28 55.60612 49.28563 408 ft 19 kts 124°
2026-05-05 09:28 55.60587 49.28784 408 ft 18 kts 94°
2026-05-05 09:28 55.60576 49.29007 415 ft 18 kts 95°
2026-05-05 09:29 55.60622 49.29193 415 ft 17 kts 36°
2026-05-05 09:29 55.60718 49.29311 415 ft 17 kts 34°
2026-05-05 09:29 55.60808 49.29430 415 ft 16 kts 59°
2026-05-05 09:29 55.60767 49.29598 408 ft 15 kts 124°
2026-05-05 09:30 55.60710 49.29744 411 ft 12 kts 124°
2026-05-05 09:30 55.60662 49.29868 412 ft 12 kts 124°
2026-05-05 09:30 55.60639 49.29940 412 ft 6 kts 87°
2026-05-05 09:30 55.60673 49.29994 413 ft 6 kts 36°
2026-05-05 09:31 55.60694 49.30019 415 ft 2 kts 34°